User: anonymous   Login
Location: Unspecified
(0.0000°N, 0.0000°E)
Time: 12:49:41
(UTC+00:00)
Language:

DIDO 2 - Orbit

View from above orbital plane
View from above orbital plane
View from above satellite
View from above satellite

Ground track
Ground track

The orbit data is extracted from the following two-line orbital elements,

1 42000U 17008BE  17229.94931429 +.00001153 +00000-0 +53037-4 0  9996
2 42000 097.4910 291.0977 0008835 006.5314 353.6036 15.22342252027256
Epoch (UTC): 17 August 2017 22:47:00
Eccentricity: 0.0008835
inclination: 97.4910°
perigee height: 493 km
apogee height: 505 km
right ascension of ascending node: 291.0977°
argument of perigee: 6.5314°
revolutions per day: 15.22342252
mean anomaly at epoch: 353.6036°
orbit number at epoch: 2725

The dashed part of the orbit path shows where the satellite is in the earth's shadow,  

DLR